Big Piney, WY

12:56 PM MDT on September 23, 2017 (GMT -0600)
Big Piney-Marbleton

Weather History for KBPI - December, 2011

Change the Weather History Date:

Sunday, December 4, 2011

  Actual Average Record
Temperature  
Mean Temperature 10 °F 15 °F  
Max Temperature 18 °F 28 °F 48 °F (2007)
Min Temperature 1 °F 2 °F -31 °F (1992)
Degree Days  
Heating Degree Days 56 50  
Month to date heating degree days 198  
Since 1 July heating degree days 3013  
Cooling Degree Days 0 0  
Month to date cooling degree days 0  
Year to date cooling degree days 35  
Moisture  
Dew Point 6 °F    
Average Humidity 77    
Maximum Humidity 93    
Minimum Humidity 56    
Precipitation  
Precipitation 0.00 in 0.01 in 0.50 in (1978)
Month to date precipitation 0.04  
Year to date precipitation 6.22  
Sea Level Pressure  
Sea Level Pressure 30.19 in    
Wind  
Wind Speed 7 mph (SE)    
Max Wind Speed 16 mph    
Max Gust Speed -    
Visibility 5 miles    
Events Snow    
T = Trace of Precipitation, MM = Missing Value Source: NWS Daily Summary

Daily Weather History Graph

Daily Weather History Graph

Search for Another Location

Airport or City:

Trip Planner

Search our weather history database for the weather conditions in past years. The results will help you decide how hot, cold, wet, or windy it might be!

Date:

Astronomy

Dec. 04, 2011 Rise Set
Actual Time 7:33 AM MST 4:47 PM MST
Civil Twilight 7:01 AM MST 5:19 PM MST
Nautical Twilight 6:26 AM MST 5:54 PM MST
Astronomical Twilight 5:52 AM MST 6:28 PM MST
Moon 1:24 PM MST (12/4) 1:56 AM MST (12/4)
Length of Visible Light 10h 17m
Length of Day
9h 13m
Waxing Gibbous, 72% of the Moon is Illuminated
Dec 4
Waxing Gibbous
Dec 10
Full
Dec 17
Last Quarter
Dec 24
New
Dec 31
First Quarter

Hourly Weather History & Observations

Time (MST) Temp. Windchill Dew Point Humidity Pressure Visibility Wind Dir Wind Speed Gust Speed Precip Events Conditions
12:53 AM 10.0 °F -4.5 °F 1.9 °F 70% 30.17 in 10.0 mi NNW 11.5 mph - N/A   Clear
1:53 AM 12.0 °F -4.0 °F 3.0 °F 67% 30.13 in 10.0 mi NNW 15.0 mph - N/A   Partly Cloudy
2:53 AM 12.0 °F 2.7 °F 3.0 °F 67% 30.15 in 10.0 mi North 5.8 mph - N/A   Mostly Cloudy
3:53 AM 3.9 °F -5.3 °F -0.9 °F 80% 30.19 in 10.0 mi South 4.6 mph - N/A   Overcast
4:53 AM 5.0 °F -2.1 °F -0.0 °F 80% 30.22 in 10.0 mi SSW 3.5 mph - N/A   Overcast
5:53 AM 9.0 °F 2.4 °F 3.0 °F 77% 30.19 in 10.0 mi East 3.5 mph - N/A   Overcast
6:53 AM 10.9 °F -0.8 °F 3.9 °F 73% 30.19 in 10.0 mi NNW 8.1 mph - N/A   Overcast
7:53 AM 10.0 °F 1.8 °F 5.0 °F 80% 30.21 in 10.0 mi WNW 4.6 mph - N/A   Overcast
8:53 AM 12.0 °F 5.9 °F 5.0 °F 73% 30.23 in 10.0 mi West 3.5 mph - N/A   Overcast
9:53 AM 12.9 °F 6.9 °F 7.0 °F 77% 30.26 in 10.0 mi SSW 3.5 mph - N/A   Overcast
10:53 AM 17.1 °F - 9.0 °F 71% 30.23 in 10.0 mi Calm Calm - N/A   Mostly Cloudy
11:53 AM 18.0 °F 11.1 °F 8.1 °F 65% 30.23 in 10.0 mi SSE 4.6 mph - N/A   Overcast
12:53 PM 17.1 °F 7.6 °F 8.1 °F 68% 30.22 in 10.0 mi East 6.9 mph - N/A   Overcast
1:10 PM 15.8 °F 5.1 °F 8.6 °F 73% 30.05 in 1.8 mi East 8.1 mph - 0.00 in Snow Light Snow
1:16 PM 15.8 °F 5.1 °F 8.6 °F 73% 30.06 in 0.8 mi East 8.1 mph - 0.00 in Snow Light Snow
1:40 PM 15.8 °F 8.6 °F 10.4 °F 79% 30.05 in 0.2 mi ENE 4.6 mph - N/A Snow Heavy Snow
1:53 PM 16.0 °F 10.4 °F 10.9 °F 81% 30.22 in 0.5 mi ENE 3.5 mph - 0.00 in Snow Snow
2:53 PM 17.1 °F - 10.9 °F 77% 30.22 in 1.0 mi Calm Calm - 0.00 in Snow Light Snow
3:21 PM 15.8 °F - 10.4 °F 79% 30.06 in 1.8 mi Calm Calm - 0.00 in Snow Light Snow
3:29 PM 17.6 °F - 10.4 °F 73% 30.06 in 2.5 mi Calm Calm - 0.00 in Snow Light Snow
3:45 PM 17.6 °F - 10.4 °F 73% 30.07 in 1.8 mi Calm Calm - 0.00 in Snow Light Snow
3:53 PM 17.1 °F - 10.9 °F 77% 30.27 in 2.0 mi Calm Calm - 0.00 in Snow Light Snow
4:28 PM 15.8 °F - 10.4 °F 79% 30.08 in 1.2 mi Calm Calm - 0.00 in Snow Light Snow
4:40 PM 15.8 °F - 12.2 °F 86% 30.09 in 2.5 mi Calm Calm - 0.00 in Snow Light Snow
4:53 PM 14.0 °F 6.5 °F 10.9 °F 88% 30.30 in 2.5 mi ENE 4.6 mph - 0.00 in Snow Light Snow
5:31 PM 14.0 °F 8.2 °F 10.4 °F 86% 30.10 in 1.2 mi East 3.5 mph - 0.00 in Snow Light Snow
5:41 PM 14.0 °F 8.2 °F 10.4 °F 86% 30.10 in 1.5 mi ENE 3.5 mph - 0.00 in Snow Light Snow
5:53 PM 14.0 °F 5.1 °F 12.2 °F 93% 30.11 in 1.8 mi East 5.8 mph - N/A Snow Light Snow
6:31 PM 14.0 °F 6.5 °F 8.6 °F 79% 30.12 in 3.0 mi East 4.6 mph - 0.00 in Snow Light Snow
6:53 PM 14.0 °F 6.5 °F 6.1 °F 71% 30.30 in 8.0 mi ESE 4.6 mph - 0.00 in   Overcast
7:07 PM 14.0 °F 5.1 °F 3.2 °F 62% 30.13 in 10.0 mi East 5.8 mph - N/A   Overcast
7:53 PM 12.9 °F - -0.0 °F 56% 30.33 in 10.0 mi Calm Calm - N/A   Overcast
8:53 PM 9.0 °F -3.2 °F -2.0 °F 61% 30.37 in 10.0 mi SSE 8.1 mph - N/A   Overcast
9:53 PM 7.0 °F -10.4 °F 3.0 °F 84% 30.40 in 2.5 mi SSW 15.0 mph - 0.00 in Snow Light Snow
10:01 PM 6.8 °F -10.0 °F 3.2 °F 85% 30.18 in 1.8 mi SSW 13.8 mph - 0.00 in Snow Light Snow
10:16 PM 6.8 °F -11.3 °F 3.2 °F 85% 30.19 in 1.5 mi SSW 16.1 mph - 0.00 in Snow Light Snow
10:53 PM 6.1 °F -10.9 °F 1.9 °F 83% 30.39 in 2.0 mi SSW 13.8 mph - 0.00 in Snow Light Snow
11:16 PM 5.0 °F -10.0 °F 1.4 °F 85% 30.21 in 2.0 mi SW 10.4 mph - 0.00 in Snow Light Snow
11:27 PM 3.2 °F -12.2 °F -0.4 °F 85% 30.21 in 2.0 mi SW 10.4 mph - 0.00 in Snow Light Snow
11:44 PM 1.4 °F -11.3 °F -2.2 °F 85% 30.21 in 3.0 mi SW 6.9 mph - 0.00 in Snow Light Snow
11:53 PM 1.4 °F -11.3 °F -2.2 °F 85% 30.21 in 3.0 mi SW 6.9 mph - N/A Snow Light Snow